Regional Weather Roundup
Issued by NWS Green Bay, WI

Home | Current Version | Previous Version | Text Only | Print | Product List | Glossary On
Versions: 1 2 3 4 5 6 7 8 9 10 11 12 13 14 15 16 17 18 19 20 21 22 23 24 25 26 27 28 29 30 31 32 33 34 35 36 37 38 39 40 41 42 43 44 45 46 47 48 49 50
000
ASUS43 KGRB 050811
RWRGRB

NORTH-CENTRAL AND NORTHEAST WISCONSIN REGIONAL WEATHER ROUNDUP
NATIONAL WEATHER SERVICE GREEN BAY WI
300 AM CDT THU MAY 05 2016

WIZ005-009-010>012-018-019-050900-
NORTH CENTRAL WISCONSIN

CITY           SKY/WX    TMP DP  RH WIND       PRES   REMARKS
IRONWOOD         N/A     30  28  93 CALM      29.99S
MANITOWISH WTR CLEAR     28  28 100 CALM      29.99S FOG
ARBOR VITAE    CLEAR     32  29  91 CALM      29.99R
EAGLE RIVER    FOG       28  28 100 CALM      29.98F VSB 3/4
LAND O LAKES   CLEAR     28  27  98 CALM      30.00R
RHINELANDER    CLEAR     30  27  88 CALM      29.98F
PHILLIPS       CLEAR     29  29 100 CALM      29.99S
ANTIGO         CLEAR     33  31  91 CALM      29.98S
TOMAHAWK       CLEAR     29  27  94 CALM      29.98F
MERRILL        CLEAR     30  29  95 CALM      30.00R
$$

WIZ013-073-050900-
NORTHEAST WISCONSIN

CITY           SKY/WX    TMP DP  RH WIND       PRES   REMARKS
IRON MOUNTAIN  CLEAR     30  28  92 CALM      29.97S
MARINETTE      CLEAR     36  30  80 N5        29.98S
OCONTO         CLEAR     35  33  90 NW6       29.97S
$$

WIZ017-030-035>037-045-050900-
CENTRAL WISCONSIN

CITY           SKY/WX    TMP DP  RH WIND       PRES   REMARKS
MEDFORD        CLEAR     34  31  88 E6        29.97F
WAUSAU         CLEAR     38  31  76 CALM      29.98R
MOSINEE        CLEAR     34  32  93 NE6       29.99S
MARSHFIELD     CLEAR     41  31  67 NE7       29.97S
WISC RAPIDS    CLEAR     39  30  70 NE5       30.00S
STEVENS POINT  CLEAR     31  28  89 CALM      29.99S
WAUPACA        CLEAR     38  32  77 NW5       29.99R
SHAWANO        CLEAR     37  32  80 N5        29.99R
CLINTONVILLE   CLEAR     37  32  81 N5        29.98S
WAUTOMA        CLEAR     36  31  82 N3        29.99R
$$

WIZ038-039-048-051-050900-
FOX VALLEY

CITY           SKY/WX    TMP DP  RH WIND       PRES   REMARKS
NWS GREEN BAY  CLEAR     36  31  82 N7        29.96F
APPLETON       PTCLDY    36  30  80 N8        29.95S
OSHKOSH        CLEAR     36  30  79 N6        29.96S
FOND DU LAC    CLEAR     41  33  73 NE16      29.96S
$$

WIZ022-050-052-050900-
EAST CENTRAL WISCONSIN

CITY           SKY/WX    TMP DP  RH WIND       PRES   REMARKS
EPHRAIM        FAIR      37  34  89 N10       29.94F
STURGEON BAY   CLEAR     37  32  81 N12       29.97F
MANITOWOC      PTCLDY    38  32  79 NW12      29.95S
SHEBOYGAN      CLOUDY    38  31  76 N10       29.93F
$$

LMZ563-521-522-541>543-050900-
LAKESHORE

STATION/POSITION TIME  TEMP    WIND        PRES    VSBY  WAVE
                       AIR SEA DIR/SP/G                  HT/PER
                 (UTC) (F)     (DEG/KT/KT) (MB)    (MI)  (FT/S)
SHEBOYGAN LKSHOR 0800   41     350/ 19/ 22 1014.2F
KEWAUNEE LKSHORE 0700   39     350/  8/ 13 1013.5F
ALGOMA MARINA    0715          340/ 10/ 13   N/A
NORTHPORT PIER   0723   40     340/ 12/ 17 1014.2F
N MID LAKE BUOY  0750   38 38  340/ 14/ 16 1013.6F         2/ 4
CHAMBERS ISLAND  0700   40     340/ 12/ 15 1014.6S
MENOMINEE LKSHOR 0700   40     350/ 11/ 13 1013.6F
$$




USA.gov is the U.S. government's official web portal to all federal, state and local government web resources and services.